This is the latest recevied weather packets stored in our database for station/object JS1SZZ-13. If no packets are shown the sender has not sent any weather packets the latest 10 day(s).
| Time | Temp. | Humidity | Pressure | Rain* | Wind** | Luminosity | Snow |
|---|---|---|---|---|---|---|---|
| 1778053500 | 20° C | 42% | 1016 hPa | 0 mm | - | - | - |
| 1778052599 | 20° C | 44% | 1016.4 hPa | 0 mm | - | - | - |
| 1778051701 | 20.56° C | 45% | 1015.4 hPa | 0 mm | - | - | - |
| 1778050800 | 20° C | 43% | 1016 hPa | 0 mm | - | - | - |
| 1778049899 | 20° C | 44% | 1016.2 hPa | 0 mm | - | - | - |
| 1778049001 | 20° C | 43% | 1015.9 hPa | 0 mm | - | - | - |
| 1778048100 | 20° C | 40% | 1016.1 hPa | 0 mm | - | - | - |
| 1778047200 | 20° C | 41% | 1015.8 hPa | 0 mm | - | - | - |
| 1778047100 | 20° C | 42% | 1015.9 hPa | 0 mm | - | - | - |
| 1778046199 | 20.56° C | 42% | 1016.2 hPa | 0 mm | - | - | - |
| 1778043686 | 21.11° C | 44% | 1016.3 hPa | 0 mm | - | - | - |
| 1778042788 | 21.11° C | 43% | 1016.5 hPa | 0 mm | - | - | - |
| 1778041887 | 20.56° C | 42% | 1016.9 hPa | 0 mm | - | - | - |
| 1778040987 | 20° C | 41% | 1016.7 hPa | 0 mm | - | - | - |
| 1778040086 | 20.56° C | 47% | 1017 hPa | 0 mm | - | - | - |
| 1778039188 | 21.11° C | 44% | 1017 hPa | 0 mm | - | - | - |
| 1778038286 | 20° C | 48% | 1017.3 hPa | 0 mm | - | - | - |
| 1778037341 | 20° C | 43% | 1017.5 hPa | 0 mm | - | - | - |
| 1778036442 | 20° C | 48% | 1017.8 hPa | 0 mm | - | - | - |
| 1778035543 | 18.89° C | 48% | 1017.7 hPa | 0 mm | - | - | - |
| 1778034642 | 18.89° C | 49% | 1018.1 hPa | 0 mm | - | - | - |
| 1778033743 | 18.89° C | 45% | 1018.2 hPa | 0 mm | - | - | - |
| 1778032842 | 20° C | 44% | 1018.3 hPa | 0 mm | - | - | - |
| 1778031941 | 18.89° C | 43% | 1018.4 hPa | 0 mm | - | - | - |
| 1778031042 | 18.89° C | 42% | 1018.8 hPa | 0 mm | - | - | - |
* Rain latest hour (hover to see other rain measurements)
** Current wind speed in m/s (hover to see current wind gust speed)